This demonstration page uses our WeatherBlox Daily Observations layout. Learn more.

Left ArrowRight Arrow

Hourly Observations for April 8, 2017

Temp ( °F °C ) Dew Point ( °F °C ) Humidity (%) Winds ( mph kmh ) Pressure ( in mb ) Visibility ( mi km ) Precip ( " mm )
12:53 am 00:53 Mostly Cloudy 47 8.3 45 7.2 93 93 NW 5 7 29.81 1009 10 16 0.00 0.00
1:53 am 01:53 Clear 44 6.7 43 6.1 96 96 W 5 7 29.83 1010 10 16 0.00 0.00
2:53 am 02:53 Clear 44 6.7 43 6.1 96 96 Calm 29.83 1010 10 16 0.00 0.00
3:53 am 03:53 Clear 43 6.1 43 6.1 100 100 Calm 29.85 1011 10 16 0.00 0.00
4:04 am 04:04 Mostly Clear 43 6 43 6 100 100 Calm 29.88 1012 10 16 0.00 0.00
4:27 am 04:27 Mostly Cloudy with Mist and Fog 43 6.1 42 5.6 97 97 WSW 3 6 29.91 1013 3 4 0.00 0.00
4:37 am 04:37 Mostly Cloudy with Mist and Fog 44 6.7 44 6.7 100 100 Calm 29.91 1013 1 2 0.00 0.00
4:53 am 04:53 Mostly Cloudy with Mist and Fog 43 6.1 43 6.1 100 100 Calm 29.87 1012 1 1 0.00 0.00
5:27 am 05:27 Mostly Cloudy with Mist and Fog 42 5.6 42 5.6 100 100 Calm 29.91 1013 1 2 0.00 0.00
5:34 am 05:34 Mostly Cloudy with Fog 43 6 43 6 100 100 Calm 29.91 1013 1 1 0.00 0.00
5:53 am 05:53 Mostly Cloudy with Fog 42 5.6 42 5.6 100 100 Calm 29.89 1012 0 0 0.00 0.00
6:11 am 06:11 Mostly Cloudy with Fog 42 5.6 42 5.6 100 100 NE 3 6 29.94 1014 1 1 0.00 0.00
6:23 am 06:23 Mostly Cloudy with Mist and Fog 42 5.6 42 5.6 100 100 NNE 3 6 29.94 1014 1 2 0.00 0.00
6:42 am 06:42 Mostly Cloudy with Fog 43 6 41 5 93 93 NNE 3 6 29.94 1014 0 0 0.00 0.00
6:53 am 06:53 Mostly Cloudy with Fog 41 5 41 5 100 100 NNE 3 6 29.92 1013 1 2 0.00 0.00
7:53 am 07:53 Cloudy with Fog 42 5.6 42 5.6 100 100 Calm 29.96 1015 1 2 0.00 0.00
8:18 am 08:18 Cloudy with Mist and Fog 43 6 43 6 100 100 Calm 29.97 1015 1 1 0.00 0.00
8:30 am 08:30 Mostly Cloudy with Mist and Fog 43 6 43 6 100 100 Calm 29.97 1015 2 2 0.00 0.00
8:41 am 08:41 Mostly Cloudy with Mist and Fog 43 6.1 43 6.1 100 100 Calm 29.97 1015 2 2 0.00 0.00
8:53 am 08:53 Mostly Cloudy with Mist and Fog 44 6.7 43 6.1 96 96 Calm 29.99 1016 6 10 0.00 0.00
9:39 am 09:39 Partly Cloudy 45 7.2 44 6.7 97 97 Calm 30.00 1016 10 16 0.00 0.00
9:53 am 09:53 Mostly Sunny 46 7.8 44 6.7 93 93 Calm 30.02 1017 10 16 0.00 0.00
10:53 am 10:53 Partly Cloudy 50 10 43 6.1 77 77 Calm 30.04 1017 10 16 0.00 0.00
11:53 am 11:53 Partly Cloudy 51 10.6 38 3.3 61 61 SW 5 7 30.04 1017 10 16 0.00 0.00
12:53 pm 12:53 Partly Cloudy 55 12.8 36 2.2 49 49 VRB 6 9 30.04 1017 10 16 0.00 0.00
1:53 pm 13:53 Sunny 57 13.9 36 2.2 45 45 VRB 3 6 30.04 1017 10 16 0.00 0.00
2:53 pm 14:53 Mostly Sunny 57 13.9 34 1.1 42 42 Calm 30.04 1017 10 16 0.00 0.00
3:53 pm 15:53 Mostly Sunny 58 14.4 36 2.2 44 44 SSW 5 7 30.04 1017 10 16 0.00 0.00
4:53 pm 16:53 Sunny 58 14.4 39 3.9 50 50 SSW 13 20 30.05 1018 10 16 0.00 0.00
5:53 pm 17:53 Sunny 56 13.3 39 3.9 53 53 S 16 26 30.06 1018 10 16 0.00 0.00
6:53 pm 18:53 Sunny 54 12.2 41 5 62 62 S 18 30 30.07 1018 10 16 0.00 0.00
7:53 pm 19:53 Clear 51 10.6 43 6.1 74 74 S 14 22 30.10 1019 10 16 0.00 0.00
8:53 pm 20:53 Mostly Cloudy 50 10 43 6.1 77 77 SSW 7 11 30.12 1020 10 16 0.00 0.00
9:53 pm 21:53 Partly Cloudy 48 8.9 43 6.1 83 83 SSW 3 6 30.16 1021 10 16 0.00 0.00
10:53 pm 22:53 Mostly Cloudy 48 8.9 43 6.1 83 83 Calm 30.17 1022 10 16 0.00 0.00
11:53 pm 23:53 Cloudy 48 8.9 44 6.7 86 86 Calm 30.18 1022 10 16 0.00 0.00

Powered by AerisWeather